7 * 24
多渠道服务支持
ONEWE-0691 是 OneWeb 卫星通信星座计划中的一颗低轨通信卫星,旨在为全球提供高速互联网服务。该卫星由空中客车防务与航天公司制造,采用标准化设计以降低成本和发射周期。它运行在约 1200 公里的近地轨道,属于 OneWeb 计划部署的数千颗卫星之一。该星座主要服务于航空、海运、偏远地区及应急通信等场景。ONEWE-0691 的成功部署有助于提升全球网络覆盖,推动数字包容性发展。
英国
(GB)
| 数据来源 | 国际轨道数据 |
| 星历时间: | 2025-10-30T04:32:31+0800 8小时前 查看轨道信息 |
| 半长轴: | 7595.809km |
| 偏心率: | 0.0001169 |
| 轨道倾角: | 87.879° |
| 近地点辐角 | 96.453° |
| 升交点赤经 | 66.833° |
| 平近点角 | 263.673° |
| 近地点: | 1216.786km |
| 远地点: | 1218.562km |
| 周期: | 109.805分钟 |
| 每日圈数: | 13.114198 |